TimePST,TemperatureF,Dew PointF,Humidity,Sea Level PressureIn,VisibilityMPH,Wind Direction,Wind SpeedMPH,Gust SpeedMPH,PrecipitationIn,Events,Conditions,WindDirDegrees,DateUTC
12:53 AM,41.0,33.1,73,30.16,10.0,East,3.5,-,N/A,,Overcast,100,2012-12-28 08:53:00
1:53 AM,41.0,32.0,70,30.16,10.0,Calm,Calm,-,N/A,,Overcast,0,2012-12-28 09:53:00
2:53 AM,41.0,33.8,76,30.15,10.0,Calm,Calm,-,N/A,,Overcast,0,2012-12-28 10:53:00
3:53 AM,41.0,33.1,73,30.15,10.0,Calm,Calm,-,N/A,,Overcast,0,2012-12-28 11:53:00
4:53 AM,41.0,33.1,73,30.14,10.0,Calm,Calm,-,N/A,,Overcast,0,2012-12-28 12:53:00
5:53 AM,39.9,32.0,73,30.13,10.0,Calm,Calm,-,N/A,,Mostly Cloudy,0,2012-12-28 13:53:00
6:53 AM,39.0,33.1,79,30.13,10.0,Calm,Calm,-,N/A,,Overcast,0,2012-12-28 14:53:00
7:53 AM,39.2,32.0,75,30.11,10.0,Calm,Calm,-,N/A,,Overcast,0,2012-12-28 15:53:00
8:53 AM,37.9,33.1,83,30.13,10.0,Calm,Calm,-,N/A,,Overcast,0,2012-12-28 16:53:00
9:53 AM,41.0,34.0,76,30.14,10.0,Calm,Calm,-,N/A,,Overcast,0,2012-12-28 17:53:00
10:53 AM,42.1,34.0,73,30.14,10.0,Calm,Calm,-,N/A,,Clear,0,2012-12-28 18:53:00
11:53 AM,43.0,36.0,76,30.13,10.0,Calm,Calm,-,N/A,,Mostly Cloudy,0,2012-12-28 19:53:00
12:53 PM,45.0,36.0,71,30.12,10.0,Calm,Calm,-,N/A,,Scattered Clouds,0,2012-12-28 20:53:00
1:53 PM,44.1,36.0,73,30.12,10.0,Calm,Calm,-,N/A,,Overcast,0,2012-12-28 21:53:00
2:53 PM,44.1,37.0,76,30.12,10.0,Calm,Calm,-,N/A,,Mostly Cloudy,0,2012-12-28 22:53:00
3:53 PM,43.0,37.0,80,30.12,10.0,Calm,Calm,-,N/A,,Overcast,0,2012-12-28 23:53:00
4:53 PM,42.8,37.4,81,30.12,10.0,Calm,Calm,-,N/A,,Overcast,0,2012-12-29 00:53:00
5:53 PM,42.1,36.0,79,30.13,10.0,WNW,3.5,-,N/A,,Overcast,290,2012-12-29 01:53:00
6:53 PM,42.1,36.0,79,30.14,10.0,Calm,Calm,-,N/A,,Overcast,0,2012-12-29 02:53:00
7:53 PM,41.0,36.0,82,30.14,10.0,Calm,Calm,-,N/A,,Overcast,0,2012-12-29 03:53:00
8:53 PM,41.0,36.0,82,30.14,10.0,Calm,Calm,-,N/A,,Overcast,0,2012-12-29 04:53:00
9:53 PM,41.0,36.0,82,30.16,10.0,Calm,Calm,-,N/A,,Overcast,0,2012-12-29 05:53:00
10:53 PM,42.1,39.0,89,30.16,10.0,Calm,Calm,-,N/A,,Overcast,0,2012-12-29 06:53:00
11:53 PM,39.0,37.0,93,30.16,4.0,Calm,Calm,-,N/A,,Overcast,0,2012-12-29 07:53:00